Location: Breungeshain
(50.5000°N, 9.2000°E)
Time: 07:44:38
(UTC+00:00)

ISS - Visible Passes

Search period start: 30 November 2023 00:00
Search period end: 10 December 2023 00:00
Orbit: 416 x 417 km, 51.6° (Epoch: 30 November)

Date Brightness Start Highest point End Pass type
(mag) Time Alt. Az. Time Alt. Az. Time Alt. Az.
30 Nov -3.8 16:28:34 10° WNW 16:31:57 80° NNE 16:34:45 14° E visible
30 Nov -1.9 18:05:26 10° W 18:07:41 30° WSW 18:07:41 30° WSW visible
01 Dec -3.1 17:16:58 10° WNW 17:20:15 52° SSW 17:21:30 31° SE visible
02 Dec -3.5 16:28:30 10° WNW 16:31:51 70° SSW 16:35:12 10° ESE visible
02 Dec -1.3 18:05:45 10° W 18:08:11 19° SW 18:08:22 19° SW visible
03 Dec -1.8 17:16:58 10° W 17:19:52 27° SW 17:22:28 12° SSE visible
04 Dec -2.3 16:28:18 10° W 16:31:28 39° SSW 16:34:37 10° SE visible
05 Dec -0.7 17:17:25 10° WSW 17:19:09 13° SW 17:20:51 10° S visible
06 Dec -0.9 16:28:13 10° W 16:30:44 20° SW 16:33:15 10° SSE visible
